ONEWEB-0122 (47268 NORAD) Tracking and Keplerian Element Data
This shows tracking and keplerian element data for the satellite.
Feedback or suggestion? Click here.
Element | Value |
Catalog | 47268 |
Name | ONEWEB-0122 |
Epoch Orbit | 1068 |
Epoch Day | 60.16668981 |
Epoch Year | 2021 |
RAAN | 16.0713 |
Inclination | 87.5198 |
Eccentricity | 0.0010468 |
Argument of Perigee | 35.7592 |
Mean Anonmoly | 109.6824 |
Mean Motion | 13.90294749 |
Decay Rate | -0.00926267 |
L1 | 1 47268U 20100L 21060.16668981 -.00926267 00000-0 -78859+0 0 9994 |
L2 | 2 47268 87.5198 16.0713 0010468 35.7592 109.6824 13.90294749 10688 |
Live tracking and technical data element details for ONEWEB-0122 (NORAD 47268). ONEWEB-0122 can be tracked NOW for your location showing map with azimuth and elevation plus other details from your city location.
Track the satellite on the map from your city or location and see movement details for azimuth, elevation, latitude, longitude, range, height, and movement on the map or in text.
IsCatalogInMostPopularTable: catalog: 47268, numindb: 20
Update: records affected: 1
GetName: 47268 ONEWEB-0122
Hit Count: updated at: Mon, 01 Mar 2021 21:31:23 GMT